Regional Weather Roundup
Issued by NWS

Home | Current Version | Previous Version | Text Only | Print | Product List | Glossary Off
Versions: 1 2 3 4 5 6 7 8 9 10 11 12 13 14 15 16 17 18 19 20 21 22 23 24 25 26 27 28 29 30 31 32 33 34 35 36 37 38 39 40 41 42 43 44 45 46 47 48 49 50

000
ASUS43 KBIS 250420
RWRND

NORTH DAKOTA REGIONAL WEATHER ROUNDUP
NATIONAL WEATHER SERVICE BISMARCK ND
1000 PM CST WED DEC 24 2014

NOTE: "FAIR" INDICATES FEW OR NO CLOUDS BELOW 12,000 FEET WITH NO
SIGNIFICANT WEATHER AND/OR OBSTRUCTIONS TO VISIBILITY.


NDZ001>003-009>011-017-250500-
NORTHWEST NORTH DAKOTA

CITY           SKY/WX    TMP DP  RH WIND       PRES   REMARKS
WILLISTON      PTCLDY    22  19  89 CALM      29.50R
MINOT          PTCLDY    28  21  75 W13       29.44R WCI  17
MINOT AFB      PTCLDY    26  26  98 W15       29.44R WCI  14
$$

NDZ018>021-031>035-040>046-250500-
SOUTHWEST NORTH DAKOTA

CITY           SKY/WX    TMP DP  RH WIND       PRES   REMARKS
BISMARCK       CLOUDY    30  28  92 W3        29.47S
DICKINSON      CLOUDY    33  28  81 NW7       29.46S
GARRISON         N/A     27  23  85 NW9       29.45S WCI  18
HETTINGER ARPT CLOUDY    33  30  88 NW8       29.47R
$$

NDZ004>008-012>016-024-026-027-054-250500-
NORTHEAST NORTH DAKOTA

CITY           SKY/WX    TMP DP  RH WIND       PRES   REMARKS
GRAND FORKS    CLOUDY    30  27  88 S8        29.42F
GRND FRKS AFB  CLOUDY    30  30  99 SW7       29.41F
DEVILS LAKE    CLEAR     23  19  86 W9        29.39S WCI  13
$$

NDZ022-023-025-028>030-036>039-047>053-250500-
SOUTHEAST NORTH DAKOTA

CITY           SKY/WX    TMP DP  RH WIND       PRES   REMARKS
FARGO          CLOUDY    30  26  85 S14       29.47F WCI  19
JAMESTOWN      CLOUDY    30  26  85 SW7       29.43S
$$



USA.gov is the U.S. government's official web portal to all federal, state and local government web resources and services.